Showing default

NOAA 3, 6920

Orbit data source: Space-Track

NOAA 3, 6920 is a payload satellite owned by NOAA (US) in SSO that was launched on Tue, 06 Nov 1973 UTC via a DELTA 0300 launch vehicle from the Air Force Western Test Range (AFWTR). Payload-class satellites include a variety of spacecraft equipped with specific instruments for various scientific and technological missions. These include communications satellites like Starlink; space stations such as the ISS; scientific satellites like the Hubble; Earth observation satellites from companies like Planet Labs, Umbra, and HawkEye 360; GPS; miniature CubeSats for education and research; and military/defense satellites.

Loading next visibility...
Identifier
6920, 1973-086A
Orbit
SSO
Country
Flag of USUS
Related business
Manufacturer
RCA/East Windsor
Mission
Non-operational spacecraft
Bus & Motor
TIROS M, Unknown motor
Mass
340 kg wet, 340 kg dry
Launch date (UTC)
1973-11-06 (52 years ago)
Launch vehicle
DELTA 0300
Launch site
Air Force Western Test Range (AFWTR)
Object type
Payload
Rocket body
Debris
Shape & HBR
Unknown
Radar Cross Section
Large (>1 m²)

Expand to show TLE details & history
Last TLE update: 13 hours ago

TLE from 13 hours ago
0 NOAA 3
1 06920U 73086A   25303.24426032 -.00000029  00000-0  12711-3 0  9994
2 06920 102.2931 309.9697 0006376 186.4123 184.1258 12.40387299353394
Epoch: 2025-10-30T05:51Z
TLE epoch observation values (Epoch: 2025-10-30T05:51:44.091Z)
Latitude
10.24238°
Longitude
-179.01539°
Altitude
1,511.775 km
Speed
7.108 km/s
True Right ascension
20h 30m 53s
True Declination
10° 11' 17"
Sunlit
Object was in daylight at epoch
Visualization orbit readout
Latitude
Unknown
Longitude
Unknown
Altitude
Unknown
Speed
Unknown
Apparent Right ascension
Unknown
Apparent Declination
Unknown
Sunlit
N/A
Visualization observer readout
Local Sidereal Time
14:56:45
Azimuth
Unknown
Elevation
Unknown
Doppler factor
Unknown
Orbital elements
Apogee altitude
1,507.578 km
Perigee altitude
1,497.529 km
Semi-major axis
7,880.691 km
Eccentricity
0.00064
Inclination
102.2931°
RAAN
309.9697°
Arg. of periapsis
186.4123°
True anomaly
184.12055°
Mean anomaly
184.1258°
Eccentric anomaly
184.12317°
Mean motion
3.10239 °/min
Orbital period
116.04 mins
BSTAR
0.00012711
Loading maneuver chart data...
Computing Atmospheric mass density...
Loading historical data...
Loading historical data...
Loading historical data...
Loading historical data...
Loading historical data...
Loading historical data...
Loading historical data...

Documentation

Showing up to 5 results
|